Location: Czu?�w
(50.1404°N, 18.9919°E)
Time: 03:29:10
(UTC+00:00)

IRS-1C Rocket - Pass Details

Date: 27 October 2020
Orbit: 801 x 805 km, 99.0° (Epoch: 27 November)

Event Time Altitude Azimuth Distance (km) Brightness Sun altitude
Rises 16:01:01 0° 141° (SE) 3,306 7.0 -5.8°
Reaches altitude 10° 16:03:25 10° 135° (SE) 2,380 6.3 -6.2°
Maximum altitude 16:08:22 44° 65° (ENE) 1,114 4.4 -6.9°
Drops below altitude 10° 16:13:21 10° 355° (N) 2,398 6.5 -7.7°
Sets 16:15:47 0° 349° (N) 3,334 7.3 -8.1°
